This is the latest recevied weather packets stored in our database for station/object IK2YOU-3. If no packets are shown the sender has not sent any weather packets the latest 10 day(s).
| Time | Temp. | Humidity | Pressure | Rain* | Wind** | Luminosity | Snow |
|---|---|---|---|---|---|---|---|
| 1777575257 | 16.67° C | 53% | 1020.9 hPa | 0 mm | - | 0 W/m² | - |
| 1777574653 | 17.22° C | 53% | 1020.7 hPa | 0 mm | - | 0 W/m² | - |
| 1777574052 | 17.22° C | 52% | 1020.6 hPa | 0 mm | - | 0 W/m² | - |
| 1777573452 | 17.78° C | 51% | 1020.4 hPa | 0 mm | - | 2 W/m² | - |
| 1777572853 | 17.78° C | 49% | 1020.3 hPa | 0 mm | - | 4 W/m² | - |
| 1777572252 | 18.33° C | 49% | 1020.2 hPa | 0 mm | - | 9 W/m² | - |
| 1777571651 | 18.33° C | 48% | 1020 hPa | 0 mm | - | 13 W/m² | - |
| 1777571051 | 18.33° C | 48% | 1019.9 hPa | 0 mm | - | 18 W/m² | - |
| 1777570452 | 18.89° C | 47% | 1019.9 hPa | 0 mm | - | 23 W/m² | - |
| 1777569854 | 18.89° C | 45% | 1019.9 hPa | 0 mm | - | 27 W/m² | - |
| 1777569382 | 19.44° C | 45% | 1019.8 hPa | 0 mm | - | 31 W/m² | - |
| 1777568652 | 19.44° C | 44% | 1019.8 hPa | 0 mm | - | 33 W/m² | - |
| 1777568052 | 19.44° C | 44% | 1019.9 hPa | 0 mm | - | 36 W/m² | - |
| 1777567579 | 19.44° C | 44% | 1019.9 hPa | 0 mm | - | 91 W/m² | - |
| 1777566852 | 20° C | 43% | 1019.9 hPa | 0 mm | - | 102 W/m² | - |
| 1777566252 | 20° C | 43% | 1019.9 hPa | 0 mm | - | 125 W/m² | - |
| 1777565652 | 20° C | 43% | 1019.9 hPa | 0 mm | - | 141 W/m² | - |
| 1777565051 | 20° C | 42% | 1019.9 hPa | 0 mm | - | 171 W/m² | - |
| 1777564451 | 20° C | 42% | 1019.8 hPa | 0 mm | - | 174 W/m² | - |
| 1777563980 | 20.56° C | 42% | 1019.8 hPa | 0 mm | - | 185 W/m² | - |
| 1777563381 | 20.56° C | 42% | 1019.8 hPa | 0 mm | - | 215 W/m² | - |
| 1777562782 | 20.56° C | 41% | 1020 hPa | 0 mm | - | 228 W/m² | - |
| 1777562051 | 20.56° C | 42% | 1020 hPa | 0 mm | - | 287 W/m² | - |
| 1777561452 | 20.56° C | 41% | 1019.9 hPa | 0 mm | - | 289 W/m² | - |
| 1777560851 | 20.56° C | 38% | 1020 hPa | 0 mm | - | 305 W/m² | - |
* Rain latest hour (hover to see other rain measurements)
** Current wind speed in m/s (hover to see current wind gust speed)